Hourly Data Report for October 02, 2017

All times are specified in Local Standard Time (LST). Add 1 hour to adjust for Daylight Saving Time where and when it is observed.

TUKTOYAKTUK
NORTHWEST TERRITORIES

69°26'00.000" N
133°01'00.000" W
4.60 m
2203914
71985
ZUB

Download Data

Hourly Data (October 2017)
Hourly Data Report for October 2, 2017
Temp Definition
°C
Dew Point Temp Definition
°C
Rel Hum Definition
%
Wind Dir Definition
10's deg

Wind Spd Definition
km/h
Visibility Definition
km
Stn Press Definition
kPa
Hmdx Definition


Wind Chill Definition


Weather Definition


TIME
00:00 0.5 -2.0 83 LegendMM LegendMM   102.31     LegendNANA
01:00 0.8 -1.8 83 LegendMM LegendMM   102.35     LegendNANA
02:00 0.8 -1.5 84 LegendMM LegendMM   102.36     LegendNANA
03:00 0.8 -1.2 86 LegendMM LegendMM   102.36     LegendNANA
04:00 0.8 -1.7 83 LegendMM LegendMM   102.40     LegendNANA
05:00 0.4 -1.8 85 LegendMM LegendMM   102.38     LegendNANA
06:00 0.1 -1.9 86 LegendMM LegendMM   102.37     LegendNANA
07:00 0.0 -2.0 86 LegendMM LegendMM   102.41     LegendNANA
08:00 -0.2 -2.4 85 LegendMM LegendMM   102.42     LegendNANA
09:00 -0.4 -2.5 86 LegendMM LegendMM   102.45     LegendNANA
10:00 -0.4 -2.7 85 LegendMM LegendMM   102.35     LegendNANA
11:00 -0.3 -3.0 83 LegendMM LegendMM   102.35     LegendNANA
12:00 -0.3 -2.5 85 LegendMM LegendMM   102.28     LegendNANA
13:00 0.1 -3.0 80 LegendMM LegendMM   102.24     LegendNANA
14:00 -0.1 -3.1 80 LegendMM LegendMM   102.17     LegendNANA
15:00 -0.2 -3.5 79 LegendMM LegendMM   102.11     LegendNANA
16:00 -0.4 -3.6 79 LegendMM LegendMM   102.09     LegendNANA
17:00 -0.4 -3.5 80 LegendMM LegendMM   101.99     LegendNANA
18:00 -0.6 -3.7 80 LegendMM LegendMM   101.98     LegendNANA
19:00 -0.9 -3.4 83 LegendMM LegendMM   101.90     LegendNANA
20:00 -1.1 -3.4 85 LegendMM LegendMM   101.80     LegendNANA
21:00 -1.3 -3.4 86 LegendMM LegendMM   101.70     LegendNANA
22:00 -1.3 -3.6 85 LegendMM LegendMM   101.67     LegendNANA
23:00 -1.3 -3.7 84 LegendMM LegendMM   101.61     LegendNANA

Notes on Data Quality.

Legend

  • E = Estimated
  • M = Missing
  • NA = Not Available
  • ‡ = Partner data that is not subject to review by the National Climate Archives
Date modified: